[Date Prev][Date Next][Thread Prev][Thread Next] - [Date Index][Thread Index][Author Index]

2 Line ISS Keps 5-19



ISS
1 25544U 98067A   03139.14634560  .00007690  00000-0  10191-3 0   263
2 25544  51.6297 166.1714 0005930 128.2846 355.4214 15.59345640256476


----
Via the sarex mailing list at AMSAT.ORG courtesy of AMSAT-NA.
To unsubscribe, send "unsubscribe sarex" to Majordomo@amsat.org



AMSAT Top AMSAT Home